Wind_Speed
16 12 10 9 8 8 8 12 17 18 18 18 18 18 18 18 19 20 20 19 18 17 16 16 15 15 15 15 14 13 13 12 13 13 13 14 14 15 14 13 12 11 11 12 12 13 14 14 14 15 14 12 12 12 11 11 12 12 12 13 13 12 12 13 14 13 12 12 12 13 13 13 13 12 10 9 9 8 9 9 10 10 10 10 10
17 12 10 9 8 8 8 10 15 18 19 19 19 19 19 19 21 21 21 20 18 18 17 17 17 17 16 15 15 14 14 13 13 13 13 14 15 15 14 13 12 11 11 11 11 12 13 14 14 15 15 14 13 13 12 12 12 12 11 12 12 13 13 13 13 13 12 12 13 13 14 13 12 11 10 9 8 8 9 10 10 10 10 10 9
17 14 12 11 10 10 9 10 14 18 20 21 21 21 21 20 21 22 22 21 19 18 18 18 18 17 16 15 15 14 14 14 14 14 14 14 15 15 14 13 11 10 10 10 10 11 12 13 14 14 14 14 14 13 13 12 12 11 11 11 12 12 13 13 13 13 13 13 13 13 13 12 11 10 8 7 7 7 8 9 9 9 9 9 8
18 16 15 14 12 10 10 12 15 18 21 22 21 21 22 21 21 23 24 23 21 20 19 19 18 16 15 15 14 14 14 15 15 15 14 15 15 15 14 12 11 10 9 9 9 10 11 12 13 14 13 14 14 13 13 13 12 11 11 10 10 11 12 12 12 12 12 13 13 12 11 10 9 8 6 6 6 6 6 8 8 8 8 8 7
21 19 17 15 13 12 12 13 16 19 21 23 23 22 23 23 23 24 25 25 23 21 20 19 17 15 14 14 14 14 15 15 16 16 16 15 15 15 14 12 11 9 8 8 9 9 10 11 12 13 13 13 13 12 13 13 12 11 11 10 9 10 11 10 10 11 11 10 10 10 9 8 6 5 4 4 4 5 6 6 6 7 7 7 7
23 20 19 16 14 13 12 13 15 20 23 24 25 24 25 25 25 25 26 26 25 23 21 19 17 16 15 15 15 16 16 17 17 16 16 15 15 14 13 12 10 9 8 8 8 9 9 10 11 12 12 12 12 12 12 13 12 11 11 10 10 10 10 9 9 9 9 9 8 8 7 6 4 3 3 3 4 6 6 6 6 7 7 7 6
23 20 18 15 14 12 11 11 14 19 24 26 27 26 26 26 26 26 27 27 26 24 22 20 18 17 17 17 17 17 18 18 17 16 15 15 14 14 13 12 11 9 8 7 7 8 9 9 9 10 11 11 11 11 11 11 11 10 10 10 11 10 9 9 9 9 9 8 8 7 6 5 4 3 4 5 5 6 6 6 7 6 6 6 6
22 20 18 14 13 13 13 13 14 19 24 27 27 27 26 27 27 27 27 27 27 25 23 21 19 19 18 18 18 18 18 17 17 16 15 15 14 14 13 12 11 10 9 8 7 8 8 9 9 9 9 10 10 10 9 9 9 9 8 9 10 10 9 9 9 9 9 9 8 8 7 6 6 5 5 5 6 6 6 6 6 5 5 5 4
21 20 18 15 15 16 16 15 15 18 23 26 27 28 28 28 28 28 27 28 27 26 24 22 21 21 20 20 20 20 19 17 17 16 16 15 15 14 13 12 11 10 10 9 8 8 8 9 9 9 9 9 9 9 8 8 7 7 6 6 7 8 8 8 8 9 9 9 9 8 8 8 7 6 5 5 5 5 5 5 4 4 4 4 4
21 20 18 17 19 19 18 17 15 16 20 25 27 29 29 29 29 28 27 28 27 26 25 23 22 22 21 20 21 20 19 17 17 17 16 16 15 14 13 12 12 11 11 10 9 9 9 9 9 9 9 9 9 9 8 8 7 6 5 5 5 5 6 6 7 7 7 8 8 7 7 7 7 6 4 3 3 4 4 4 4 4 4 4 5
22 21 20 21 22 19 18 18 15 14 18 23 26 28 28 29 29 29 28 28 28 27 26 24 23 22 22 22 22 21 19 17 17 17 17 17 16 16 15 14 13 12 12 11 10 10 9 9 9 9 9 9 9 9 8 8 7 6 5 4 4 4 4 5 5 5 6 6 6 5 5 5 5 5 4 3 2 3 4 5 4 4 5 5 6
27 25 24 25 23 18 16 16 15 13 15 19 23 26 28 28 29 30 29 28 28 28 27 25 24 23 23 23 22 21 19 17 17 18 18 18 17 16 15 14 14 13 13 12 11 11 10 9 9 9 9 9 9 9 9 9 8 8 7 6 5 4 3 4 4 4 4 4 4 4 3 3 3 4 3 2 2 3 3 3 3 4 5 6 6
31 29 28 26 22 19 17 15 14 13 13 16 21 24 26 28 28 29 29 28 28 28 28 26 25 25 25 24 23 21 19 18 18 19 18 18 17 17 16 15 15 14 13 13 12 12 11 10 10 10 10 10 9 9 9 9 9 8 8 7 6 5 4 4 3 3 3 3 3 2 2 2 2 2 2 2 1 2 1 2 2 3 4 5 5
33 31 28 25 22 20 18 15 14 13 14 15 19 21 24 26 27 28 28 29 29 29 29 27 26 27 26 26 24 22 20 20 20 19 19 18 18 17 17 16 15 15 14 13 13 12 12 11 11 11 11 10 10 10 10 9 9 8 8 7 7 6 5 4 3 2 2 2 2 1 2 2 2 2 2 2 2 1 1 1 2 2 3 3 4
34 31 27 24 24 22 19 16 14 15 15 15 18 20 22 25 27 27 27 29 29 29 29 29 28 28 28 26 24 22 21 21 21 21 19 18 18 18 18 17 17 16 15 14 13 13 13 12 12 12 12 11 10 10 9 9 8 8 8 7 6 5 4 3 2 2 1 1 1 1 2 3 3 3 3 3 3 2 2 1 1 1 2 3 4
32 29 26 26 28 25 20 17 14 16 16 14 15 18 20 23 26 28 28 28 29 30 30 30 30 29 29 27 25 23 22 22 21 21 20 19 19 19 19 19 18 17 16 15 15 14 14 13 13 13 13 12 11 10 9 9 8 7 7 6 5 4 3 2 2 2 1 1 1 0 1 3 4 5 4 4 4 4 2 1 1 1 2 3 4
30 27 27 30 31 26 20 18 16 16 15 13 13 15 19 22 25 28 29 29 29 30 31 31 31 30 29 28 26 24 23 22 22 22 21 20 20 20 20 20 19 17 17 16 16 15 15 15 14 14 13 12 11 10 9 9 8 7 7 6 5 5 4 4 3 3 3 3 3 2 1 2 3 5 6 6 5 5 3 2 2 1 2 3 4
31 28 30 34 33 28 22 19 18 18 16 13 13 14 17 20 24 27 29 29 29 30 32 32 32 32 30 28 27 25 24 24 24 23 22 21 20 20 20 20 19 18 18 17 17 17 16 16 15 15 14 13 12 11 11 10 9 8 7 6 5 4 4 3 2 1 1 2 3 3 3 3 3 4 6 6 7 6 5 4 3 3 2 3 3
35 30 33 37 36 31 25 21 20 20 18 16 15 14 15 18 22 25 28 30 31 32 33 33 34 33 32 30 28 27 26 25 25 24 23 21 21 21 20 20 19 18 18 18 18 18 17 17 16 16 15 14 14 13 12 10 9 7 6 5 4 4 3 3 3 2 2 3 4 5 5 5 5 4 5 6 7 7 7 6 5 4 3 3 3
38 33 33 35 34 32 27 23 22 21 20 19 17 15 15 16 19 23 27 31 32 33 34 34 35 34 33 32 29 28 27 27 26 25 24 22 22 21 21 20 20 18 18 18 19 19 18 18 18 17 17 16 15 13 11 10 8 7 6 6 5 5 5 5 5 5 4 4 5 6 6 6 6 6 6 5 6 7 7 7 5 4 4 3 3
40 35 34 34 33 32 30 26 24 24 23 21 19 17 16 16 17 20 25 29 31 32 32 34 35 36 35 33 31 29 29 29 28 27 25 24 23 22 22 21 20 19 18 19 19 19 19 19 19 19 18 17 15 13 11 10 9 8 7 7 7 7 6 6 6 6 6 5 6 7 7 7 7 8 8 7 6 6 6 6 6 4 4 3 2
41 36 35 36 35 33 32 29 26 25 24 23 21 20 19 16 16 17 21 26 30 31 31 33 35 36 36 35 34 32 31 30 29 28 27 26 24 23 22 21 20 19 19 19 19 20 20 20 21 21 20 18 16 14 12 10 10 9 9 8 8 8 7 7 8 7 7 6 7 8 8 8 8 8 8 8 7 6 6 6 5 5 4 3 2
41 37 35 36 36 33 33 32 29 27 25 24 23 21 20 18 17 17 18 22 28 30 31 32 33 35 36 37 36 34 32 31 30 29 28 27 26 25 24 22 21 21 21 21 20 21 21 22 22 22 21 19 17 15 13 12 11 10 10 9 9 9 8 8 8 8 8 7 7 8 8 8 9 9 9 8 7 6 5 6 6 5 4 4 3
39 38 37 36 36 34 35 34 32 28 26 25 25 23 23 22 20 18 18 21 26 29 31 32 32 34 36 37 37 35 33 32 30 30 29 28 28 26 25 24 24 24 24 23 22 22 22 23 23 24 23 21 18 16 14 13 12 11 10 10 10 10 10 9 9 9 8 8 8 8 9 9 9 9 8 8 6 5 5 6 6 5 5 5 3
39 38 38 37 36 36 36 35 32 30 28 27 26 25 25 24 22 20 19 21 24 27 31 32 32 34 36 37 37 37 35 33 31 31 31 30 29 28 27 26 26 26 25 25 23 23 23 24 25 25 25 23 21 18 15 13 12 11 11 11 11 11 11 10 9 9 9 9 8 8 9 9 9 8 8 7 6 5 5 6 6 6 6 6 4
39 37 38 40 40 39 37 36 34 32 31 29 28 27 27 25 24 23 22 23 24 26 29 32 33 34 34 35 36 37 35 34 33 32 32 32 31 29 29 28 28 27 26 26 25 24 25 26 27 27 27 25 23 20 17 14 13 12 12 12 11 12 12 11 10 10 10 9 9 8 8 9 9 9 7 7 7 6 6 7 7 7 7 6 6
42 41 43 45 44 40 38 37 36 34 33 31 30 29 29 27 26 25 25 24 24 26 28 31 33 34 34 34 35 35 35 35 34 34 34 33 32 31 30 30 30 28 27 27 27 26 26 27 28 29 28 27 24 21 18 16 14 13 13 13 12 13 13 12 11 11 10 10 9 9 8 8 10 9 7 7 8 7 7 7 8 8 8 7 7
40 41 44 47 44 40 38 38 37 36 36 35 33 32 31 30 29 28 27 26 25 25 27 30 33 34 33 33 34 35 35 35 35 35 35 35 33 32 31 31 31 29 29 28 28 28 28 28 29 30 29 28 25 22 19 17 15 15 14 14 13 13 14 13 12 11 11 10 9 9 8 8 9 9 7 7 9 9 9 9 9 9 9 9 8
40 42 45 47 45 42 40 40 40 39 39 38 36 35 34 33 31 30 28 27 26 26 26 29 32 33 32 32 33 34 35 35 36 36 36 35 35 34 32 32 31 30 30 30 30 30 29 29 29 30 29 28 25 22 20 18 17 16 15 14 13 13 14 14 13 11 10 10 9 10 9 8 9 9 7 8 10 11 10 10 10 11 10 9 9
46 48 50 50 48 47 44 43 42 42 41 40 38 36 35 34 33 31 29 28 27 26 26 27 30 31 32 33 33 34 34 34 35 36 36 36 36 36 34 33 31 31 32 31 31 31 30 30 30 30 29 27 25 23 21 20 19 17 16 15 14 14 14 13 13 12 11 11 10 9 9 9 10 9 8 9 10 11 11 11 12 12 11 10 9
47 48 52 53 51 50 47 45 44 43 43 42 39 37 36 36 35 33 31 30 29 26 25 26 28 31 32 33 33 33 33 33 34 35 36 36 37 36 36 34 33 33 32 32 32 32 31 31 31 30 29 27 25 24 23 22 20 18 16 15 15 15 14 13 13 13 12 12 11 10 9 9 10 10 10 10 11 11 11 12 13 13 12 11 11
48 48 51 53 52 50 49 47 45 45 45 42 38 37 38 37 36 34 33 32 30 28 25 25 27 30 31 32 32 32 32 33 33 33 34 36 37 37 36 36 35 34 33 32 32 32 32 32 32 31 30 27 26 25 24 23 21 19 16 16 15 15 14 13 13 13 13 13 12 11 10 10 11 11 11 11 12 11 11 12 14 14 13 13 12
51 50 51 52 52 51 49 48 47 46 45 41 38 37 37 37 36 35 36 35 33 30 28 26 27 28 29 30 31 32 32 32 32 32 33 34 35 36 36 36 36 35 35 33 32 32 33 33 33 32 31 29 28 26 25 24 23 20 18 16 16 15 14 13 13 13 13 13 13 12 11 11 12 12 12 12 12 11 11 12 14 15 15 14 14
52 52 52 53 53 52 50 49 48 47 44 42 39 37 36 37 38 39 38 37 35 34 31 29 26 25 26 28 29 31 31 32 32 32 32 33 33 34 35 36 36 36 35 34 33 32 32 33 33 33 33 31 30 27 26 25 24 22 19 17 16 15 14 14 14 14 14 13 13 13 12 12 12 13 13 13 13 11 11 11 14 16 16 16 15
52 53 53 54 54 53 51 50 49 47 44 43 41 38 37 38 40 40 38 37 37 36 34 31 28 25 24 25 27 29 30 31 32 32 32 32 32 32 34 35 36 36 35 34 34 33 32 32 33 33 34 33 31 29 28 27 25 23 21 19 17 15 15 15 15 15 14 14 14 14 13 13 13 13 14 14 13 11 10 11 13 16 17 17 16
52 52 53 55 55 54 53 52 50 48 46 44 43 40 38 38 39 39 38 38 38 38 35 33 29 26 24 24 25 27 29 29 30 31 31 31 31 31 32 34 35 35 35 35 34 33 32 32 32 32 33 33 33 31 29 29 28 25 22 20 17 16 16 16 16 16 16 15 15 14 14 13 13 14 15 14 13 12 11 11 12 14 16 17 17
53 54 54 56 56 55 55 53 50 48 47 46 44 42 40 39 39 39 40 39 39 38 35 33 30 27 26 25 26 26 27 28 28 29 30 31 31 31 32 33 34 34 35 35 35 34 33 32 32 32 32 32 32 31 31 31 30 26 23 21 19 17 17 17 18 18 17 16 15 15 14 14 14 15 15 15 14 13 12 12 12 13 14 16 17
55 56 56 57 57 57 55 53 51 50 49 47 46 44 43 41 40 40 40 40 40 38 35 32 31 30 28 27 28 27 27 27 27 28 29 31 32 32 32 32 33 34 34 34 35 35 34 33 33 32 31 32 32 31 31 31 30 27 24 22 20 19 19 19 20 19 19 17 17 16 15 14 14 15 16 15 15 13 13 14 14 13 13 14 16
56 58 59 59 58 57 56 54 53 51 50 49 48 48 47 44 42 40 41 42 41 38 35 32 32 32 31 30 30 28 27 26 26 27 29 30 32 32 32 32 33 34 34 35 35 35 34 33 33 32 31 31 32 31 30 30 30 27 24 23 22 21 21 21 21 21 21 19 18 18 17 16 15 16 17 16 16 14 13 15 16 16 15 16 17
56 58 61 61 60 59 57 56 55 53 52 51 50 51 50 47 44 42 42 44 42 38 35 34 34 35 34 32 31 30 27 25 25 27 29 30 31 33 33 33 33 34 34 34 34 34 33 33 33 32 31 31 31 30 29 29 28 26 25 24 24 23 22 23 23 23 22 21 21 20 19 18 17 17 17 17 17 15 14 16 17 18 19 20 20
54 58 60 61 61 60 58 57 56 55 53 52 52 53 52 48 46 44 43 44 44 41 38 37 36 37 36 33 32 30 28 26 26 28 30 30 31 32 33 33 34 34 33 32 32 32 32 33 32 32 31 30 30 30 28 27 27 26 26 26 25 24 24 25 25 24 23 23 23 22 21 20 19 19 18 18 17 16 16 17 18 20 21 23 24
50 54 57 59 60 60 58 57 57 56 54 52 52 53 51 48 46 44 42 44 46 44 41 39 38 39 37 34 33 32 29 28 28 29 30 30 30 32 33 33 33 33 32 31 31 31 31 31 31 31 30 29 30 29 27 27 27 27 27 26 26 25 26 26 26 25 25 24 24 24 22 21 21 20 20 19 18 17 18 19 20 22 24 25 25
48 50 53 55 57 57 56 56 57 56 53 51 52 52 50 46 43 41 43 47 48 46 43 41 40 39 36 34 34 33 30 28 28 29 30 29 29 31 32 32 32 32 31 30 30 30 30 30 30 29 29 29 29 28 27 26 27 27 27 26 26 26 26 26 26 26 26 25 25 24 23 22 21 21 22 21 19 19 20 22 24 25 26 26 27
47 47 49 52 54 55 55 55 56 54 51 51 52 52 50 46 41 41 46 50 49 47 45 43 40 37 35 35 35 33 30 29 29 29 29 29 29 29 30 31 31 31 30 30 30 30 30 30 29 28 28 28 28 28 27 26 26 27 26 26 27 26 26 26 26 26 26 25 24 23 21 21 21 22 23 23 22 21 22 24 26 27 28 28 29
47 47 47 49 51 53 54 53 53 52 51 50 51 50 48 47 45 45 48 50 50 48 47 44 40 37 35 35 35 32 30 29 28 29 29 28 28 29 29 29 30 30 30 30 30 29 29 28 28 28 27 27 27 27 27 26 26 27 27 27 27 26 26 26 26 25 24 23 21 21 21 21 22 23 24 25 25 24 24 25 26 28 28 29 31
47 46 46 47 49 50 50 49 48 49 48 48 48 47 46 48 50 49 49 50 50 50 49 46 42 39 37 36 34 31 29 29 28 28 27 27 27 28 28 29 30 30 30 29 28 28 27 27 28 28 28 27 28 27 27 27 28 28 28 27 27 26 26 25 25 23 22 20 20 20 20 21 22 23 25 26 26 27 27 27 28 29 30 31 33
46 45 45 47 47 45 44 45 45 46 47 46 45 44 44 47 49 51 51 51 51 51 49 46 43 41 39 36 32 30 29 28 27 27 26 26 27 28 28 29 30 29 29 28 27 26 26 27 28 28 28 28 28 28 28 28 28 28 27 27 26 25 25 24 23 21 20 19 19 18 18 18 19 21 22 24 25 26 27 28 29 30 31 33 34
46 45 46 46 45 43 42 44 45 44 44 44 43 43 43 45 47 49 51 52 52 51 49 46 44 43 39 35 31 30 29 28 27 26 27 27 28 28 28 29 29 29 28 27 27 27 27 28 28 28 29 29 28 28 29 29 28 27 26 25 24 24 23 22 20 19 19 19 19 18 18 18 18 19 21 22 22 23 25 26 27 27 29 30 31
47 46 46 45 44 43 42 42 42 42 41 42 42 43 44 45 46 48 50 52 53 53 49 47 45 43 39 35 32 30 29 28 28 28 28 28 28 29 29 29 29 29 29 28 28 28 29 29 29 29 29 29 29 28 28 28 27 25 25 23 22 21 20 19 19 19 20 20 20 20 21 21 21 21 23 23 23 23 25 27 27 27 28 29 28
47 46 46 45 44 43 41 40 40 41 40 41 42 44 45 47 47 48 49 52 55 54 50 47 45 42 38 35 32 31 31 30 30 29 29 29 29 29 29 28 28 28 27 28 28 29 29 30 30 30 29 29 29 28 28 27 26 25 24 22 21 20 20 20 21 23 23 23 23 23 24 24 24 25 26 26 26 26 28 30 31 31 32 31 30
49 47 47 46 44 42 42 41 41 41 41 41 42 44 45 45 46 47 50 54 55 53 50 46 43 40 37 35 33 33 33 32 31 30 30 30 30 30 30 29 29 28 29 30 30 30 30 31 31 30 30 30 30 28 28 27 26 25 24 23 22 22 23 24 26 26 26 26 26 27 27 28 28 29 30 30 30 30 31 33 34 33 34 34 33
Wind_Direction
209 199 206 213 222 231 226 215 208 207 205 201 197 192 188 184 182 181 178 175 175 178 180 182 184 184 186 186 181 176 172 170 165 160 155 149 146 144 142 135 127 122 115 113 113 113 115 117 119 119 118 119 115 110 113 117 118 120 117 114 113 113 120 131 136 138 137 133 128 127 125 123 120 117 112 107 107 111 112 113 112 111 108 106 104
207 192 200 208 212 218 219 218 210 206 205 202 198 194 190 187 185 184 182 180 178 181 183 185 187 188 188 186 181 177 172 169 167 163 159 153 150 149 147 141 134 129 122 119 118 118 119 118 119 119 117 118 116 111 114 118 121 122 118 117 117 115 118 126 131 134 135 131 129 128 126 124 122 117 109 103 103 110 114 115 114 113 112 110 106
208 195 200 206 208 208 208 211 209 206 205 204 200 196 192 189 187 186 186 186 184 185 188 189 191 191 189 186 182 177 173 170 170 168 164 158 155 154 152 148 142 134 128 125 124 125 125 123 122 120 116 118 118 114 116 118 120 120 119 121 119 116 119 122 126 130 131 129 128 126 126 125 124 117 106 94 87 99 114 116 114 113 111 107 101
218 206 204 209 211 209 210 211 207 204 204 205 203 198 195 191 188 189 190 190 190 191 193 193 193 191 188 185 182 178 175 174 173 171 168 164 160 160 158 154 148 141 136 133 134 133 131 129 127 122 119 120 119 113 115 117 116 116 117 119 118 119 122 121 124 128 128 128 127 126 125 124 120 112 101 87 79 92 107 111 111 108 101 95 88
227 215 207 210 213 213 219 219 210 203 201 203 204 200 197 195 191 191 192 192 194 196 196 195 193 190 188 184 181 180 179 179 179 175 172 168 166 165 164 161 156 151 146 144 145 144 141 137 133 129 126 124 120 115 115 116 115 116 118 119 118 121 124 125 130 131 128 129 127 124 123 121 117 110 97 83 82 94 101 106 102 91 83 79 73
231 221 211 208 212 221 229 231 218 206 201 200 202 201 198 197 196 194 194 194 195 198 197 194 192 188 187 186 184 184 185 185 183 178 173 169 168 168 167 166 164 160 157 156 154 153 152 148 142 137 133 129 126 122 119 118 118 118 120 121 118 119 124 129 134 132 129 128 124 121 120 117 117 109 90 82 85 92 97 97 84 73 69 63 55
231 225 220 214 216 228 236 237 227 212 206 201 200 201 199 199 199 197 196 196 196 198 197 194 191 188 188 188 188 188 189 187 183 178 173 170 170 171 170 170 170 167 166 165 162 160 163 161 154 147 141 137 135 131 126 123 124 124 124 124 121 121 126 128 129 130 128 124 121 117 113 109 106 97 90 88 89 89 89 84 74 67 61 53 43
232 232 231 227 222 229 234 234 229 219 211 205 200 200 200 200 202 201 199 198 198 197 197 195 191 190 191 191 192 194 193 188 182 178 174 172 172 173 173 173 174 173 171 172 171 168 171 173 169 162 154 149 146 141 137 135 133 133 131 127 125 125 128 128 126 126 125 122 118 114 111 108 104 101 100 97 93 90 86 82 77 70 59 49 37
229 230 227 227 229 233 239 237 232 224 217 210 204 200 200 201 202 204 202 200 199 197 196 196 193 191 193 193 194 197 196 189 184 180 178 177 176 175 175 176 177 176 175 175 176 175 176 182 183 179 172 166 160 156 154 152 148 144 140 133 130 130 131 129 127 126 124 123 120 118 118 115 110 108 107 103 98 90 84 78 72 65 56 47 28
226 226 223 227 232 235 245 248 242 231 220 214 210 204 201 201 202 204 204 202 201 199 197 196 195 193 194 196 198 200 197 191 186 183 183 182 180 178 177 178 179 178 178 177 178 180 180 186 191 190 188 183 178 175 173 171 167 162 158 152 145 140 134 130 128 127 126 124 123 124 124 120 119 121 118 112 101 91 83 73 60 48 39 30 14
228 226 225 226 228 232 245 255 254 242 226 219 215 210 206 203 203 205 205 204 202 201 199 196 195 195 196 198 201 201 198 192 188 186 186 186 184 182 179 179 180 179 180 180 182 185 185 188 194 197 196 194 192 193 192 190 188 185 182 180 178 167 149 139 134 131 130 127 126 127 128 128 132 135 134 129 108 87 80 69 56 33 20 19 14
229 224 223 223 224 231 244 254 259 252 235 223 218 215 212 207 205 206 206 205 203 203 202 198 195 197 199 201 202 201 197 192 189 189 189 189 186 184 182 181 181 181 182 184 187 189 190 191 195 200 202 201 200 203 206 204 202 201 200 199 200 197 185 167 155 148 141 136 133 133 139 148 152 154 154 143 113 86 72 57 38 16 16 24 24
228 223 222 220 221 230 239 247 252 251 239 225 218 217 216 212 209 208 207 206 205 204 204 200 198 198 201 203 203 200 196 193 192 192 191 190 188 186 186 186 185 185 186 188 190 192 194 195 198 203 205 206 206 208 212 213 211 209 208 209 211 210 207 203 193 177 163 154 147 145 160 183 190 188 186 174 137 106 72 25 10 16 26 33 29
226 223 222 219 218 225 233 238 242 244 238 227 219 215 215 216 214 212 210 208 206 205 204 203 201 201 203 204 203 200 197 195 194 194 194 192 190 190 189 188 188 188 189 191 193 195 197 198 200 206 209 209 208 210 213 216 216 216 214 212 214 213 212 216 219 217 211 203 191 181 194 213 226 226 219 212 203 187 189 323 4 24 31 28 23
228 223 224 222 221 225 228 231 235 239 239 232 224 217 213 214 215 215 213 211 209 207 205 204 204 205 206 206 204 201 198 197 196 196 196 194 193 193 192 191 192 193 193 194 196 199 200 201 203 208 213 213 211 210 211 212 214 217 217 215 215 217 217 215 219 230 240 242 242 237 235 234 241 248 248 241 240 238 231 250 349 19 17 9 10
231 227 228 227 227 226 224 227 233 236 239 239 234 226 218 214 213 214 215 213 211 209 207 206 206 208 209 208 205 202 200 200 200 199 199 197 196 196 196 196 197 197 198 199 201 203 204 204 206 210 213 213 210 207 204 201 202 204 204 198 193 191 182 164 138 116 94 72 57 341 260 253 250 252 252 253 254 254 248 247 286 349 356 355 2
232 228 227 229 231 230 225 225 231 235 238 241 240 234 225 219 215 214 215 214 213 211 209 207 208 210 211 210 207 204 202 202 203 203 202 200 198 199 200 201 201 201 203 203 204 206 207 207 208 210 210 207 200 192 185 181 178 176 171 162 155 150 143 136 123 108 92 69 49 35 6 301 269 260 256 254 255 256 255 254 266 301 333 342 352
231 224 223 226 228 231 229 225 228 232 234 235 237 237 231 225 221 218 216 216 214 213 211 209 209 210 212 212 209 206 204 203 204 205 205 203 201 202 203 203 203 204 205 205 205 206 207 207 207 206 202 195 184 173 167 164 163 162 160 156 155 155 156 161 153 125 65 21 3 357 355 345 318 285 268 261 258 256 257 260 267 283 308 327 336
233 224 223 224 224 226 227 225 227 230 231 233 234 237 238 232 227 223 218 217 215 213 212 211 210 211 212 213 211 208 206 206 207 208 208 207 206 206 206 204 204 204 205 205 206 206 206 206 204 199 192 183 173 167 163 164 168 175 182 188 196 204 216 236 253 269 292 314 321 325 330 333 334 320 292 271 263 260 259 263 269 282 299 318 328
237 229 225 228 227 226 224 222 226 230 231 234 235 237 242 239 233 227 222 220 219 216 214 212 211 211 213 214 212 209 208 208 209 210 210 210 210 210 209 207 205 204 206 207 208 206 204 203 199 192 185 178 173 172 174 178 187 198 212 224 231 238 244 255 265 273 284 292 297 303 311 316 323 325 315 295 273 261 259 262 267 279 293 308 321
239 233 227 228 229 228 227 222 221 227 230 232 235 236 240 242 239 234 228 224 223 222 219 216 214 212 212 214 213 211 210 210 211 211 211 212 213 213 212 210 207 205 207 209 209 206 203 200 194 188 184 181 181 184 187 192 199 207 218 229 238 245 249 257 267 272 277 281 283 290 297 303 311 318 317 311 295 271 259 259 264 272 282 290 299
236 232 225 225 225 225 227 224 221 226 231 235 237 238 240 243 245 242 235 230 226 225 223 221 219 216 215 215 215 213 211 212 213 214 214 214 215 215 214 212 209 207 208 210 208 205 202 197 192 189 187 188 190 193 195 198 204 211 219 229 240 249 252 257 264 271 275 276 275 280 288 296 304 310 312 311 305 285 259 251 256 261 262 262 262
234 232 227 225 223 221 221 223 226 227 230 236 239 240 243 244 246 245 240 234 230 227 225 224 223 220 219 218 218 216 214 214 215 216 217 217 216 216 215 213 210 209 210 212 209 206 203 198 194 192 192 195 198 199 200 204 209 215 222 231 242 251 256 258 263 269 273 275 275 277 283 292 300 306 308 308 306 291 259 241 240 242 242 243 247
231 231 230 226 222 221 221 224 230 232 230 235 239 241 243 243 244 246 242 237 232 228 226 226 225 223 222 222 221 219 217 215 217 219 220 220 219 217 216 214 212 211 212 213 211 207 205 201 197 197 198 200 204 205 207 210 214 219 226 235 244 253 258 259 261 266 268 271 273 275 278 286 294 302 304 304 304 291 257 236 228 226 231 236 243
228 228 231 230 223 223 225 225 230 234 232 234 239 241 244 246 247 247 245 240 236 231 227 226 227 226 225 224 224 223 220 218 218 220 222 223 222 220 218 217 216 214 214 215 213 209 207 204 201 201 203 205 207 209 212 216 221 226 233 240 248 255 260 262 262 265 266 267 270 271 273 279 286 294 299 296 294 281 250 231 220 217 223 228 234
223 223 228 232 227 223 226 227 228 232 233 234 237 241 244 246 247 246 244 242 239 234 230 227 228 227 226 227 226 226 224 221 220 221 223 225 225 223 221 221 220 218 216 217 216 213 209 207 205 205 206 208 210 212 215 219 225 230 237 245 252 258 264 269 270 270 269 270 271 269 268 270 276 286 291 284 279 269 245 228 217 214 218 222 228
217 216 221 228 227 222 223 226 226 229 233 233 234 239 242 243 244 245 245 243 241 237 233 230 230 229 228 228 229 228 227 225 223 223 225 227 227 226 225 224 224 222 220 219 219 217 214 211 209 208 209 210 212 213 217 221 226 231 237 244 252 259 267 274 278 279 277 275 274 271 266 263 268 278 280 268 264 260 245 228 217 213 215 220 229
220 217 220 227 229 224 222 225 227 229 232 233 232 235 238 239 239 241 242 243 243 241 236 232 232 231 229 229 230 230 229 228 226 226 226 228 229 229 228 227 227 226 224 223 222 220 218 216 214 213 213 213 214 215 220 225 228 232 237 243 249 258 267 276 281 284 282 279 275 270 265 258 261 271 271 253 251 254 245 229 220 216 215 220 231
220 219 220 225 229 227 224 225 227 230 231 232 232 233 235 237 237 239 241 241 242 242 239 235 234 234 232 230 231 231 231 230 228 228 229 229 231 231 231 231 230 230 229 226 225 224 223 222 220 218 217 217 216 218 223 229 232 233 238 245 250 257 265 274 280 283 282 279 272 265 260 255 256 263 259 242 242 249 246 230 221 219 219 223 233
213 214 215 219 223 225 225 226 227 229 230 231 232 231 233 236 238 240 242 242 241 240 240 237 235 236 234 232 233 233 233 233 231 231 231 231 232 233 233 233 233 233 233 231 229 228 227 227 225 224 223 221 220 221 226 232 236 235 239 247 253 257 264 273 279 282 280 276 270 263 255 249 249 254 250 236 235 244 245 234 223 222 224 228 235
216 215 214 216 218 220 222 225 227 228 229 230 230 230 231 233 235 238 242 243 242 240 239 238 236 236 236 235 235 235 236 236 235 234 233 233 233 234 234 234 235 236 236 236 234 233 232 231 230 229 228 225 223 225 228 234 238 238 240 248 254 259 266 273 277 280 279 276 273 266 255 245 244 246 242 233 231 238 243 238 228 225 228 232 237
218 217 215 215 217 218 220 223 226 228 229 228 227 228 230 231 232 235 240 243 243 241 238 237 235 236 238 238 237 237 238 238 238 237 237 236 235 236 235 235 236 237 238 238 238 237 236 235 235 234 233 230 228 228 230 236 241 241 242 248 255 260 266 271 275 278 280 279 277 270 260 249 242 241 236 230 229 234 240 240 233 228 229 234 240
216 217 216 215 217 219 220 221 223 226 228 228 225 225 228 230 230 231 235 240 243 242 239 236 235 236 239 240 241 241 241 241 241 240 240 239 238 238 238 238 237 238 238 239 240 240 240 239 238 238 237 235 233 231 233 238 243 244 243 247 254 260 265 270 273 276 278 279 278 272 264 253 244 239 234 228 227 231 236 239 236 233 233 237 243
214 215 215 215 216 218 221 222 223 224 226 228 227 225 226 228 228 228 230 234 239 241 240 239 237 238 239 241 243 244 244 244 244 244 243 243 242 240 240 240 239 239 239 239 240 242 242 242 240 240 240 239 237 235 236 240 243 245 244 246 252 258 265 270 271 272 273 274 274 272 266 256 246 240 235 230 229 231 234 237 238 239 241 244 248
215 215 215 215 217 218 220 222 223 224 226 228 229 228 227 228 229 229 229 231 236 240 241 241 239 238 240 242 244 246 247 247 248 247 247 246 244 243 242 242 241 241 241 241 241 241 243 243 243 241 241 241 240 239 239 242 244 245 245 247 251 256 262 267 269 269 269 270 271 270 266 259 248 241 237 233 231 232 233 236 240 243 247 250 254
216 216 216 216 218 219 219 220 223 225 227 229 231 231 230 232 233 233 231 230 233 237 240 241 241 239 240 243 245 247 248 249 250 250 249 248 247 245 244 243 243 243 242 242 242 242 242 243 243 242 241 242 242 241 242 244 245 246 246 247 251 254 257 262 265 266 267 267 268 268 265 260 250 243 240 236 234 234 233 234 240 246 251 255 258
216 216 216 218 219 219 220 222 224 227 228 230 232 233 233 234 234 234 233 232 234 237 239 241 243 243 242 243 245 247 249 250 250 251 251 251 249 247 246 245 245 244 243 243 242 242 242 242 243 242 241 242 242 242 242 244 245 246 246 248 251 253 255 258 262 265 265 265 265 265 264 259 252 246 243 239 238 238 237 237 241 248 253 258 261
217 216 217 219 220 220 221 224 226 228 228 230 232 234 236 235 234 234 235 235 235 237 239 241 245 246 245 245 246 247 249 251 252 252 252 251 250 249 247 246 246 244 243 243 242 242 242 242 243 243 242 241 242 241 241 244 245 246 246 248 251 253 253 256 260 262 263 264 264 265 264 260 254 249 246 244 244 244 243 243 245 249 254 258 261
217 218 218 219 221 221 222 225 228 229 229 229 231 234 235 236 235 233 235 237 237 237 239 242 246 248 247 245 246 247 249 251 253 253 252 250 250 250 248 246 246 245 244 243 243 243 243 243 244 244 243 242 241 241 241 244 245 246 246 247 251 253 252 254 257 260 262 265 266 267 266 263 257 252 249 249 250 249 248 248 250 252 254 257 261
216 218 219 220 221 222 223 225 229 230 230 230 231 234 235 236 235 232 233 237 239 239 239 241 244 247 246 245 247 249 250 250 251 252 251 249 248 248 247 245 245 245 245 245 245 245 245 245 245 245 243 242 241 241 241 244 245 246 245 246 249 251 251 252 255 258 262 266 268 270 270 268 264 259 255 254 255 255 253 252 254 255 254 254 259
217 218 220 220 222 223 224 226 229 231 231 231 231 234 236 236 236 233 231 235 240 240 239 240 242 244 245 245 248 250 250 249 249 249 249 248 247 246 245 245 244 245 246 246 247 247 246 245 245 244 243 241 241 240 241 243 245 244 244 245 248 251 251 252 255 258 263 267 271 273 274 273 271 267 262 260 260 260 258 256 257 258 256 255 259
218 218 220 221 222 224 225 227 229 231 232 232 233 235 235 235 235 232 229 233 238 240 240 241 242 244 244 246 249 250 249 249 248 247 248 249 247 245 244 244 244 245 246 247 247 247 246 245 244 243 241 239 239 241 241 242 244 243 243 245 248 250 251 254 257 261 266 269 272 274 275 275 274 271 268 265 263 261 261 260 259 258 258 260 263
218 218 219 221 223 224 226 227 230 231 231 232 233 234 234 234 233 229 228 231 235 238 240 241 242 244 244 246 249 250 250 249 248 247 247 247 246 245 243 243 245 246 246 247 247 246 245 244 242 240 238 237 239 241 242 241 242 242 242 244 247 249 251 256 260 265 269 272 274 275 275 274 271 270 269 267 262 258 258 259 260 260 262 265 268
218 218 219 220 222 224 226 228 231 233 232 232 233 233 233 234 232 228 227 230 232 236 238 239 241 242 243 245 248 249 250 250 248 246 245 244 243 243 243 242 244 245 245 245 245 244 243 241 238 237 237 237 239 242 242 241 240 241 242 243 246 248 251 257 263 268 272 274 276 275 272 268 264 262 262 263 261 257 255 256 258 261 264 267 270
217 217 218 220 221 223 227 228 231 233 234 234 234 233 231 232 231 228 227 229 231 233 234 236 239 241 242 245 248 249 250 249 247 245 244 242 241 242 242 241 242 243 243 243 242 241 239 236 234 234 235 237 239 240 240 237 236 238 240 242 245 249 252 258 264 268 270 272 270 267 265 264 261 259 259 261 261 260 259 259 260 262 265 268 270
217 217 218 219 220 222 225 227 228 230 232 232 233 232 229 229 229 228 227 228 229 229 231 234 237 240 243 245 247 248 248 247 245 244 242 240 240 240 240 239 239 239 239 238 237 235 232 230 230 232 235 237 237 237 235 234 234 237 241 244 247 251 254 257 261 263 265 266 265 264 265 265 263 262 263 265 266 266 265 264 264 264 264 265 266
216 216 217 218 219 220 220 220 221 223 226 227 228 229 227 226 227 226 226 226 226 227 229 232 235 239 242 245 245 244 245 244 244 243 241 240 240 239 238 237 237 237 236 234 232 230 229 229 230 232 234 235 234 234 233 234 236 240 244 248 250 252 254 256 258 259 261 264 266 269 271 270 269 269 269 271 273 274 274 274 272 271 270 269 270
215 215 216 217 216 214 212 212 214 218 223 224 223 223 224 225 226 226 225 224 225 226 227 230 234 238 241 241 240 240 242 243 242 241 239 238 238 237 236 235 235 235 234 232 230 229 228 228 229 231 232 232 232 232 234 237 240 243 246 248 249 250 253 255 256 258 261 264 267 271 275 278 281 281 281 281 280 281 281 281 281 282 281 280 279
214 214 215 215 212 209 209 212 214 216 220 221 221 220 221 223 225 226 224 222 222 225 226 229 233 237 238 236 236 238 240 241 240 239 237 237 237 237 236 235 235 235 235 232 230 230 228 228 227 227 228 230 231 233 236 240 242 242 242 244 246 249 253 256 258 261 265 268 272 276 278 281 285 286 287 287 288 288 286 285 284 285 284 284 284
214 214 215 214 211 209 211 214 215 217 219 220 220 220 219 220 222 223 221 219 221 224 226 228 232 235 235 233 235 237 239 239 239 238 236 236 236 236 235 234 234 234 234 232 230 229 229 229 229 228 229 232 235 236 238 240 240 239 240 243 246 248 250 253 257 263 268 272 275 277 279 282 285 287 288 289 290 289 287 285 284 283 281 282 284
213 214 216 215 212 211 212 215 216 218 220 220 220 220 219 218 218 217 215 217 220 223 225 229 232 233 232 232 234 236 238 239 240 239 238 237 235 234 233 232 230 229 229 229 228 227 228 230 231 230 231 234 237 237 238 239 239 239 241 243 245 246 249 252 256 261 266 270 272 274 276 280 283 286 288 288 288 287 285 285 285 284 282 281 282
Height
5904 5904 5905 5907 5908 5909 5910 5911 5912 5913 5915 5916 5918 5919 5920 5922 5923 5925 5926 5927 5929 5930 5931 5933 5934 5935 5935 5937 5938 5939 5940 5941 5942 5943 5944 5945 5946 5946 5947 5948 5949 5949 5950 5950 5951 5951 5952 5952 5953 5952 5952 5952 5952 5952 5952 5951 5952 5953 5953 5953 5953 5954 5954 5955 5955 5955 5956 5957 5957 5957 5958 5958 5959 5960 5960 5960 5959 5959 5959 5959 5959 5959 5959 5959 5959
5903 5903 5904 5906 5907 5908 5909 5910 5911 5913 5914 5916 5917 5919 5920 5921 5923 5925 5926 5927 5929 5930 5931 5932 5933 5935 5936 5937 5938 5939 5941 5942 5943 5944 5945 5946 5946 5947 5948 5949 5950 5950 5951 5951 5952 5952 5953 5953 5954 5954 5953 5953 5953 5953 5954 5953 5954 5954 5955 5955 5955 5955 5956 5956 5956 5957 5957 5958 5958 5959 5959 5960 5960 5961 5961 5961 5961 5960 5960 5960 5960 5961 5961 5960 5960
5902 5902 5903 5905 5906 5907 5908 5909 5911 5912 5913 5915 5916 5918 5920 5921 5923 5924 5926 5927 5929 5930 5931 5932 5934 5935 5936 5938 5939 5940 5941 5943 5944 5945 5945 5946 5947 5948 5949 5949 5950 5951 5951 5952 5953 5953 5954 5954 5955 5955 5955 5955 5955 5955 5955 5955 5955 5955 5956 5956 5956 5956 5957 5958 5958 5958 5959 5959 5960 5960 5961 5961 5961 5962 5962 5962 5962 5962 5962 5962 5962 5962 5962 5962 5962
5902 5901 5902 5903 5904 5906 5908 5909 5910 5911 5913 5914 5916 5918 5919 5921 5922 5924 5925 5927 5929 5930 5931 5932 5934 5936 5937 5938 5940 5941 5942 5943 5944 5945 5946 5947 5948 5948 5949 5950 5951 5952 5952 5953 5953 5954 5955 5955 5956 5956 5956 5956 5956 5956 5956 5957 5957 5957 5957 5957 5957 5958 5958 5959 5959 5959 5960 5960 5961 5961 5962 5962 5962 5962 5963 5963 5962 5962 5963 5963 5963 5963 5963 5963 5963
5902 5900 5900 5902 5903 5905 5906 5908 5909 5910 5912 5913 5915 5917 5919 5920 5922 5923 5924 5926 5928 5929 5931 5933 5934 5936 5938 5939 5940 5941 5942 5943 5944 5945 5946 5947 5948 5949 5950 5951 5952 5952 5953 5954 5954 5955 5955 5956 5957 5957 5957 5957 5957 5958 5958 5958 5958 5958 5959 5959 5958 5959 5959 5960 5960 5961 5961 5961 5962 5962 5962 5963 5963 5963 5963 5963 5963 5963 5963 5964 5964 5964 5964 5964 5963
5901 5899 5899 5900 5902 5904 5905 5907 5908 5909 5910 5912 5914 5916 5918 5919 5921 5922 5924 5926 5927 5929 5931 5933 5935 5936 5938 5939 5940 5941 5942 5943 5944 5945 5946 5947 5948 5949 5950 5952 5952 5953 5954 5954 5955 5956 5956 5957 5958 5958 5958 5958 5959 5959 5959 5959 5960 5960 5960 5960 5959 5960 5961 5961 5962 5962 5962 5962 5963 5963 5963 5964 5964 5964 5964 5964 5964 5964 5964 5965 5965 5965 5965 5964 5964
5900 5899 5898 5898 5901 5903 5905 5906 5908 5909 5909 5910 5912 5914 5917 5918 5920 5921 5923 5925 5927 5929 5931 5932 5934 5936 5937 5939 5940 5941 5941 5943 5944 5946 5947 5948 5949 5950 5951 5952 5953 5954 5954 5955 5956 5956 5957 5957 5958 5959 5959 5959 5959 5960 5960 5961 5961 5962 5962 5961 5961 5961 5962 5962 5963 5963 5963 5963 5963 5964 5964 5964 5965 5965 5965 5965 5964 5965 5965 5965 5966 5966 5965 5965 5965
5897 5897 5897 5898 5900 5902 5904 5905 5906 5907 5908 5910 5911 5913 5916 5918 5919 5921 5923 5924 5926 5928 5930 5932 5934 5936 5937 5938 5939 5940 5941 5943 5944 5946 5947 5948 5949 5950 5951 5952 5953 5954 5955 5956 5956 5957 5957 5958 5959 5959 5959 5960 5960 5960 5961 5961 5962 5962 5963 5962 5962 5963 5963 5963 5963 5964 5964 5964 5964 5964 5965 5965 5966 5966 5966 5966 5965 5966 5966 5966 5966 5966 5966 5966 5966
5894 5895 5896 5898 5899 5901 5902 5904 5905 5906 5908 5910 5911 5912 5914 5916 5918 5920 5922 5924 5926 5928 5930 5932 5933 5935 5936 5937 5939 5940 5941 5943 5945 5946 5947 5949 5950 5951 5952 5953 5954 5955 5956 5956 5957 5957 5958 5959 5959 5960 5960 5960 5961 5961 5962 5962 5963 5963 5963 5963 5963 5964 5964 5964 5964 5964 5965 5965 5965 5965 5966 5966 5967 5967 5967 5967 5967 5967 5967 5967 5967 5967 5967 5967 5966
5892 5894 5894 5897 5898 5899 5901 5903 5905 5906 5907 5909 5910 5911 5913 5915 5917 5919 5921 5924 5926 5928 5929 5931 5933 5934 5936 5937 5938 5939 5941 5943 5944 5946 5947 5948 5949 5950 5952 5953 5954 5955 5956 5957 5957 5958 5958 5959 5960 5961 5961 5961 5961 5962 5962 5963 5963 5963 5963 5964 5964 5964 5964 5965 5965 5965 5966 5966 5966 5966 5967 5967 5967 5968 5968 5968 5967 5968 5968 5968 5968 5968 5967 5967 5967
5890 5892 5893 5896 5897 5896 5900 5903 5904 5906 5907 5908 5910 5911 5913 5914 5916 5918 5921 5923 5925 5927 5929 5931 5932 5934 5935 5937 5938 5939 5941 5943 5944 5946 5947 5948 5949 5950 5951 5953 5954 5955 5956 5957 5958 5958 5958 5959 5960 5961 5961 5962 5962 5962 5963 5963 5964 5964 5964 5964 5965 5965 5965 5965 5966 5966 5967 5967 5967 5968 5968 5968 5968 5968 5968 5968 5968 5968 5969 5969 5969 5969 5968 5968 5967
5890 5892 5893 5894 5895 5895 5898 5902 5904 5905 5906 5907 5909 5911 5913 5914 5916 5918 5920 5922 5925 5927 5929 5930 5932 5934 5935 5936 5937 5939 5941 5942 5944 5945 5946 5947 5948 5950 5951 5952 5954 5955 5956 5957 5958 5958 5959 5959 5960 5961 5962 5962 5962 5963 5963 5964 5964 5965 5965 5965 5965 5966 5966 5966 5966 5967 5967 5968 5968 5968 5969 5969 5969 5969 5969 5969 5969 5969 5969 5969 5969 5969 5969 5968 5968
5890 5892 5893 5893 5892 5894 5898 5901 5903 5904 5906 5907 5908 5910 5912 5914 5916 5917 5919 5922 5924 5926 5928 5930 5932 5933 5934 5935 5937 5939 5940 5942 5943 5944 5946 5947 5948 5950 5951 5952 5953 5955 5956 5957 5958 5959 5959 5960 5961 5961 5962 5962 5962 5963 5963 5964 5965 5965 5965 5966 5966 5966 5967 5967 5967 5968 5968 5968 5969 5969 5969 5969 5969 5969 5969 5969 5969 5969 5970 5970 5970 5970 5969 5969 5969
5888 5889 5890 5892 5891 5893 5897 5900 5902 5903 5904 5906 5907 5909 5911 5913 5915 5917 5919 5921 5923 5925 5927 5929 5931 5932 5933 5935 5936 5938 5940 5941 5943 5944 5945 5947 5948 5949 5951 5952 5953 5955 5956 5957 5958 5959 5960 5960 5961 5962 5962 5962 5963 5963 5964 5964 5965 5965 5966 5966 5966 5967 5967 5968 5968 5968 5969 5969 5969 5970 5970 5969 5969 5969 5969 5969 5970 5970 5970 5970 5970 5970 5970 5970 5970
5884 5886 5887 5890 5891 5892 5895 5899 5901 5902 5903 5905 5906 5908 5910 5912 5915 5917 5918 5920 5922 5924 5926 5928 5930 5931 5933 5934 5936 5938 5939 5941 5942 5943 5945 5946 5948 5949 5950 5952 5953 5954 5955 5957 5958 5959 5960 5961 5961 5962 5962 5963 5963 5963 5964 5964 5965 5966 5966 5967 5967 5967 5968 5968 5969 5969 5969 5969 5970 5970 5970 5970 5969 5969 5970 5970 5970 5970 5970 5971 5971 5971 5971 5971 5971
5879 5883 5886 5889 5890 5890 5894 5898 5900 5901 5902 5904 5906 5907 5909 5911 5913 5915 5917 5919 5921 5923 5925 5927 5929 5930 5932 5934 5936 5937 5939 5940 5941 5943 5944 5946 5947 5948 5950 5951 5952 5953 5955 5956 5958 5959 5960 5960 5961 5962 5962 5963 5963 5963 5964 5965 5965 5966 5966 5967 5967 5968 5968 5969 5969 5969 5970 5970 5970 5970 5970 5970 5970 5970 5970 5970 5970 5970 5971 5971 5971 5971 5971 5971 5971
5878 5883 5886 5889 5890 5890 5892 5896 5899 5900 5902 5903 5905 5906 5908 5909 5911 5913 5915 5917 5919 5921 5923 5925 5927 5929 5931 5933 5935 5937 5938 5940 5941 5942 5943 5945 5946 5948 5949 5950 5951 5953 5954 5955 5957 5958 5959 5960 5961 5961 5962 5963 5963 5964 5964 5965 5965 5966 5966 5967 5968 5968 5969 5969 5969 5970 5970 5970 5970 5971 5970 5970 5970 5970 5970 5970 5970 5971 5971 5971 5972 5972 5972 5972 5972
5878 5883 5886 5886 5888 5889 5891 5894 5897 5898 5900 5902 5903 5905 5906 5908 5910 5912 5914 5916 5918 5920 5922 5924 5926 5928 5930 5932 5934 5936 5937 5939 5940 5941 5942 5944 5946 5947 5948 5949 5951 5952 5953 5954 5956 5957 5958 5959 5960 5961 5962 5963 5963 5964 5964 5965 5965 5966 5966 5967 5968 5968 5969 5969 5970 5970 5970 5971 5971 5971 5971 5971 5971 5970 5970 5971 5971 5971 5971 5972 5972 5972 5972 5972 5972
5876 5881 5883 5883 5885 5887 5889 5893 5896 5897 5899 5900 5902 5903 5905 5907 5909 5910 5913 5914 5916 5917 5919 5922 5924 5926 5928 5931 5933 5935 5936 5938 5939 5940 5942 5944 5945 5946 5947 5949 5950 5951 5952 5953 5955 5956 5957 5959 5959 5961 5962 5963 5963 5964 5964 5965 5966 5966 5967 5967 5968 5968 5969 5969 5970 5970 5970 5971 5971 5971 5971 5971 5971 5971 5970 5970 5971 5971 5971 5972 5972 5972 5972 5972 5972
5873 5878 5881 5882 5884 5887 5887 5890 5893 5895 5897 5899 5900 5902 5904 5905 5907 5909 5911 5912 5914 5916 5918 5920 5922 5924 5927 5929 5931 5933 5935 5936 5938 5940 5941 5943 5944 5945 5946 5948 5949 5950 5952 5953 5954 5955 5956 5958 5959 5960 5962 5963 5963 5964 5965 5965 5966 5966 5967 5967 5968 5968 5969 5969 5970 5970 5971 5971 5971 5971 5971 5971 5971 5971 5970 5970 5971 5971 5971 5972 5972 5972 5972 5973 5973
5872 5875 5879 5881 5883 5886 5887 5888 5890 5893 5895 5897 5899 5901 5902 5904 5905 5907 5909 5911 5913 5915 5917 5919 5921 5923 5925 5927 5930 5932 5933 5935 5937 5938 5940 5942 5943 5944 5946 5947 5948 5950 5951 5952 5953 5955 5956 5957 5959 5960 5962 5963 5964 5964 5965 5965 5966 5966 5967 5967 5967 5968 5968 5969 5969 5970 5970 5971 5971 5970 5971 5971 5971 5971 5970 5970 5970 5971 5971 5971 5972 5972 5973 5973 5973
5869 5872 5877 5879 5881 5884 5886 5888 5888 5890 5893 5895 5897 5899 5901 5903 5904 5906 5908 5910 5912 5914 5916 5918 5920 5922 5924 5925 5927 5929 5931 5933 5935 5937 5939 5940 5942 5943 5945 5946 5948 5949 5950 5951 5952 5954 5955 5957 5958 5960 5961 5962 5963 5964 5965 5965 5965 5966 5966 5967 5967 5967 5968 5968 5969 5969 5970 5970 5970 5970 5970 5970 5970 5971 5970 5970 5970 5970 5971 5971 5972 5972 5973 5973 5973
5867 5869 5873 5878 5880 5881 5883 5886 5887 5888 5891 5893 5895 5898 5899 5901 5903 5904 5906 5908 5910 5912 5915 5916 5918 5920 5922 5923 5925 5928 5930 5932 5934 5936 5937 5939 5941 5942 5944 5946 5947 5948 5949 5950 5952 5953 5954 5956 5958 5959 5961 5962 5963 5964 5964 5965 5965 5965 5966 5966 5967 5967 5967 5968 5968 5969 5969 5970 5970 5970 5970 5970 5970 5970 5970 5970 5970 5970 5971 5971 5972 5972 5972 5973 5973
5865 5866 5869 5874 5878 5878 5879 5883 5885 5886 5889 5891 5893 5896 5897 5899 5901 5903 5905 5906 5908 5910 5912 5914 5917 5918 5920 5921 5924 5926 5928 5931 5933 5935 5936 5938 5939 5941 5942 5944 5946 5947 5948 5949 5950 5952 5954 5955 5957 5959 5960 5961 5962 5963 5963 5964 5964 5965 5965 5966 5966 5966 5966 5967 5967 5968 5968 5969 5969 5969 5969 5969 5969 5969 5970 5970 5970 5970 5970 5971 5971 5972 5972 5972 5973
5862 5865 5867 5869 5873 5875 5877 5881 5884 5885 5887 5889 5891 5893 5895 5897 5899 5901 5903 5904 5906 5908 5910 5912 5914 5916 5918 5920 5922 5924 5927 5929 5931 5933 5935 5936 5938 5940 5941 5943 5944 5945 5947 5948 5949 5951 5952 5954 5956 5957 5958 5959 5961 5962 5962 5963 5964 5964 5965 5965 5965 5965 5965 5966 5966 5967 5967 5968 5968 5968 5968 5968 5968 5969 5969 5969 5969 5970 5970 5970 5971 5972 5972 5972 5972
5859 5863 5865 5865 5867 5872 5875 5878 5882 5883 5885 5887 5889 5891 5893 5895 5897 5899 5901 5902 5904 5906 5908 5910 5911 5913 5916 5918 5920 5922 5925 5928 5929 5931 5933 5934 5936 5938 5940 5941 5943 5944 5946 5947 5948 5949 5951 5952 5954 5955 5956 5958 5959 5960 5961 5962 5963 5963 5964 5964 5964 5964 5964 5965 5965 5966 5966 5967 5967 5967 5968 5968 5968 5968 5968 5968 5969 5969 5969 5970 5970 5971 5971 5972 5972
5855 5859 5861 5860 5862 5869 5873 5875 5879 5881 5882 5885 5887 5889 5891 5893 5895 5897 5898 5900 5902 5904 5906 5908 5909 5911 5914 5916 5918 5921 5923 5925 5927 5929 5930 5932 5934 5936 5938 5940 5941 5943 5944 5945 5947 5948 5949 5950 5952 5953 5954 5956 5957 5959 5960 5961 5962 5962 5963 5963 5963 5963 5963 5964 5964 5965 5965 5965 5966 5966 5967 5967 5967 5967 5967 5968 5968 5968 5969 5969 5970 5970 5971 5971 5971
5854 5857 5858 5857 5860 5867 5871 5873 5876 5878 5879 5882 5884 5886 5888 5890 5892 5894 5896 5898 5900 5902 5904 5906 5907 5909 5912 5915 5916 5918 5920 5923 5924 5926 5928 5930 5932 5934 5936 5938 5940 5942 5943 5944 5945 5947 5948 5949 5950 5951 5953 5954 5956 5957 5959 5960 5960 5961 5961 5961 5962 5962 5962 5962 5963 5963 5964 5964 5965 5965 5965 5966 5966 5966 5966 5967 5967 5967 5968 5968 5969 5970 5970 5971 5971
5852 5854 5856 5856 5859 5863 5867 5870 5872 5874 5876 5879 5881 5883 5885 5887 5889 5892 5894 5896 5898 5900 5902 5904 5905 5907 5910 5913 5914 5916 5918 5920 5922 5924 5926 5928 5930 5932 5934 5936 5938 5940 5941 5942 5944 5945 5946 5947 5948 5950 5951 5953 5955 5956 5957 5958 5959 5959 5960 5960 5961 5961 5961 5961 5962 5962 5962 5963 5963 5963 5964 5964 5964 5965 5965 5966 5966 5966 5967 5967 5968 5969 5970 5970 5971
5842 5844 5848 5851 5855 5859 5862 5865 5868 5870 5873 5875 5878 5880 5882 5885 5887 5889 5891 5894 5896 5899 5900 5902 5904 5905 5908 5910 5911 5913 5915 5917 5919 5922 5924 5926 5927 5929 5931 5934 5936 5937 5939 5940 5942 5943 5945 5946 5947 5948 5950 5952 5953 5955 5956 5957 5957 5958 5959 5959 5959 5960 5960 5960 5960 5960 5961 5961 5961 5962 5962 5963 5963 5963 5964 5964 5965 5965 5966 5966 5967 5968 5969 5969 5970
5836 5839 5842 5846 5850 5854 5858 5862 5865 5867 5869 5872 5875 5878 5880 5882 5884 5887 5889 5891 5894 5897 5899 5901 5902 5903 5905 5907 5909 5911 5913 5915 5917 5919 5921 5923 5925 5926 5929 5931 5933 5935 5937 5938 5940 5941 5943 5944 5945 5947 5948 5950 5952 5953 5954 5955 5956 5957 5957 5958 5958 5959 5959 5959 5959 5959 5959 5959 5960 5960 5961 5961 5961 5962 5962 5963 5964 5964 5964 5965 5966 5967 5968 5968 5969
5834 5837 5840 5844 5846 5850 5854 5858 5861 5864 5866 5869 5873 5875 5877 5879 5882 5884 5887 5888 5891 5894 5897 5899 5900 5901 5903 5905 5907 5909 5911 5913 5915 5917 5918 5920 5922 5924 5926 5928 5931 5932 5934 5936 5938 5939 5941 5942 5943 5945 5947 5949 5950 5951 5953 5953 5954 5955 5956 5957 5957 5957 5958 5958 5958 5958 5958 5958 5958 5959 5959 5959 5960 5960 5961 5961 5962 5963 5963 5964 5965 5966 5967 5967 5968
5830 5834 5837 5841 5844 5848 5851 5854 5858 5860 5863 5866 5870 5872 5875 5877 5880 5882 5884 5885 5888 5891 5893 5896 5897 5899 5901 5903 5905 5907 5909 5910 5912 5914 5916 5917 5919 5922 5924 5926 5928 5929 5931 5933 5935 5937 5938 5940 5941 5943 5945 5946 5948 5950 5951 5952 5952 5954 5955 5955 5956 5956 5957 5957 5957 5957 5957 5957 5957 5957 5957 5958 5958 5958 5959 5960 5961 5962 5962 5963 5964 5965 5965 5966 5966
5828 5831 5833 5837 5841 5846 5849 5852 5854 5857 5860 5863 5866 5869 5872 5874 5876 5878 5880 5882 5885 5887 5890 5892 5895 5897 5900 5901 5903 5904 5906 5908 5910 5912 5913 5915 5917 5919 5921 5922 5924 5926 5928 5931 5933 5934 5936 5937 5939 5940 5942 5944 5945 5947 5949 5949 5950 5952 5953 5954 5954 5955 5955 5955 5956 5956 5955 5955 5955 5955 5956 5956 5956 5957 5958 5958 5959 5960 5961 5962 5962 5963 5964 5964 5964
5825 5828 5830 5833 5838 5842 5845 5849 5852 5855 5858 5860 5862 5865 5868 5869 5871 5874 5877 5880 5882 5884 5887 5890 5893 5895 5897 5899 5900 5902 5903 5905 5907 5909 5911 5913 5914 5916 5918 5919 5921 5923 5925 5927 5929 5931 5933 5934 5936 5937 5939 5941 5943 5945 5946 5947 5948 5949 5951 5952 5953 5953 5954 5954 5953 5954 5953 5953 5954 5954 5954 5954 5955 5955 5956 5957 5958 5959 5959 5960 5961 5961 5962 5962 5963
5822 5825 5828 5831 5834 5838 5842 5846 5849 5852 5855 5857 5859 5862 5865 5867 5869 5872 5875 5878 5879 5881 5884 5887 5890 5893 5895 5897 5898 5899 5901 5902 5904 5906 5908 5910 5912 5914 5915 5916 5918 5920 5922 5924 5926 5928 5930 5931 5932 5934 5936 5938 5939 5942 5943 5944 5945 5947 5948 5950 5951 5951 5952 5951 5951 5951 5951 5951 5952 5952 5952 5952 5953 5953 5954 5955 5956 5957 5957 5958 5959 5959 5959 5960 5960
5817 5821 5825 5828 5831 5835 5839 5843 5846 5849 5852 5854 5857 5860 5862 5864 5866 5868 5871 5874 5876 5879 5882 5885 5888 5890 5893 5895 5896 5897 5898 5900 5901 5903 5905 5907 5909 5910 5912 5913 5914 5916 5918 5920 5922 5924 5926 5927 5929 5931 5933 5935 5936 5938 5940 5941 5942 5944 5946 5947 5948 5949 5949 5949 5949 5949 5949 5949 5949 5949 5949 5950 5951 5951 5952 5953 5954 5955 5955 5956 5956 5957 5957 5957 5958
5813 5817 5821 5824 5828 5832 5836 5839 5843 5846 5849 5852 5855 5857 5859 5862 5864 5866 5868 5871 5874 5877 5880 5883 5885 5887 5890 5892 5893 5895 5896 5897 5899 5901 5902 5904 5905 5907 5908 5910 5911 5913 5915 5916 5918 5920 5922 5924 5926 5928 5930 5931 5933 5935 5937 5938 5939 5942 5944 5945 5946 5946 5947 5947 5946 5946 5947 5947 5947 5947 5947 5948 5949 5949 5950 5951 5952 5952 5953 5953 5954 5954 5955 5955 5956
5809 5813 5817 5820 5824 5829 5833 5836 5839 5842 5846 5850 5852 5854 5856 5859 5862 5864 5866 5868 5871 5875 5878 5881 5883 5884 5886 5888 5890 5892 5894 5895 5896 5897 5898 5900 5902 5903 5905 5907 5908 5909 5911 5913 5914 5916 5918 5920 5922 5924 5926 5928 5929 5932 5934 5935 5937 5939 5941 5942 5943 5943 5944 5944 5944 5944 5944 5945 5945 5945 5946 5946 5947 5947 5948 5949 5949 5950 5951 5951 5951 5952 5952 5953 5953
5805 5809 5812 5817 5821 5825 5830 5833 5835 5839 5843 5846 5849 5850 5852 5856 5859 5862 5864 5866 5869 5873 5876 5878 5880 5880 5882 5885 5887 5889 5891 5893 5894 5894 5895 5896 5898 5900 5901 5903 5904 5906 5907 5909 5911 5913 5915 5917 5918 5920 5922 5924 5926 5928 5931 5932 5934 5936 5937 5938 5939 5940 5941 5941 5941 5941 5942 5942 5943 5943 5944 5944 5945 5945 5946 5947 5947 5948 5949 5949 5949 5949 5949 5950 5950
5801 5804 5808 5813 5817 5821 5825 5829 5831 5834 5838 5842 5845 5846 5849 5853 5856 5859 5863 5865 5867 5869 5872 5874 5876 5877 5879 5882 5884 5886 5888 5890 5890 5891 5891 5893 5894 5896 5898 5900 5901 5902 5904 5906 5908 5910 5912 5913 5915 5917 5919 5921 5923 5925 5928 5929 5930 5932 5934 5935 5936 5937 5937 5938 5938 5939 5939 5940 5941 5942 5942 5942 5943 5943 5944 5944 5945 5946 5947 5947 5947 5947 5946 5946 5946
5797 5800 5804 5808 5812 5816 5821 5825 5827 5830 5834 5838 5841 5842 5846 5850 5853 5857 5862 5863 5863 5865 5868 5871 5872 5874 5876 5879 5881 5882 5884 5886 5887 5888 5888 5890 5891 5893 5895 5896 5898 5899 5901 5904 5905 5907 5908 5910 5912 5914 5916 5918 5919 5921 5924 5926 5927 5928 5930 5931 5933 5934 5934 5935 5935 5936 5937 5938 5939 5939 5940 5940 5940 5940 5941 5942 5943 5944 5944 5944 5944 5944 5943 5943 5943
5793 5796 5800 5804 5808 5812 5817 5820 5823 5826 5831 5834 5836 5838 5842 5846 5850 5856 5859 5858 5858 5862 5865 5867 5869 5871 5873 5876 5877 5879 5880 5882 5883 5884 5885 5886 5888 5889 5891 5893 5895 5896 5899 5901 5902 5904 5905 5907 5909 5911 5913 5915 5916 5918 5920 5922 5923 5925 5926 5928 5929 5930 5931 5932 5933 5934 5935 5935 5936 5937 5937 5938 5938 5938 5938 5939 5940 5941 5941 5941 5941 5940 5940 5940 5940
5790 5793 5796 5800 5804 5808 5811 5815 5818 5822 5826 5829 5831 5834 5838 5843 5848 5852 5852 5852 5855 5859 5861 5863 5866 5868 5870 5872 5873 5875 5877 5878 5879 5880 5881 5883 5884 5886 5888 5890 5892 5893 5895 5897 5899 5900 5902 5904 5906 5908 5909 5911 5913 5915 5917 5918 5920 5921 5923 5924 5926 5927 5929 5930 5930 5931 5932 5933 5933 5934 5934 5934 5935 5935 5934 5935 5936 5937 5937 5937 5937 5937 5937 5937 5937
5786 5789 5793 5796 5799 5803 5807 5810 5814 5817 5821 5824 5826 5830 5835 5839 5843 5845 5845 5847 5851 5855 5857 5860 5862 5865 5867 5868 5870 5872 5873 5874 5875 5877 5878 5879 5881 5882 5885 5887 5888 5890 5892 5894 5895 5897 5899 5901 5903 5905 5906 5908 5910 5911 5913 5915 5916 5917 5919 5921 5923 5925 5926 5927 5928 5929 5929 5930 5930 5930 5930 5930 5931 5931 5931 5931 5932 5933 5933 5934 5934 5934 5934 5934 5933
5783 5786 5789 5792 5795 5799 5802 5806 5809 5812 5815 5818 5821 5826 5830 5834 5836 5838 5840 5843 5847 5850 5853 5856 5859 5861 5863 5865 5867 5868 5870 5871 5872 5873 5874 5876 5877 5879 5881 5883 5885 5887 5889 5890 5892 5894 5896 5898 5900 5902 5903 5905 5906 5908 5910 5911 5913 5914 5916 5918 5920 5922 5923 5924 5925 5925 5926 5926 5926 5926 5927 5927 5928 5928 5928 5928 5929 5929 5929 5930 5930 5930 5930 5930 5929
5779 5782 5786 5788 5791 5795 5799 5802 5805 5807 5811 5814 5817 5821 5825 5828 5830 5833 5836 5839 5843 5846 5849 5852 5855 5857 5859 5861 5863 5865 5866 5867 5868 5869 5871 5872 5874 5876 5878 5880 5882 5884 5885 5887 5889 5891 5893 5895 5897 5898 5900 5901 5903 5904 5906 5907 5909 5911 5913 5915 5917 5918 5920 5921 5922 5922 5923 5923 5923 5923 5924 5924 5925 5925 5926 5926 5926 5926 5926 5926 5926 5926 5926 5925 5925
5775 5779 5782 5785 5788 5792 5795 5798 5802 5805 5808 5811 5814 5817 5820 5822 5826 5829 5831 5835 5839 5843 5846 5849 5851 5853 5856 5858 5860 5861 5862 5863 5864 5866 5867 5869 5871 5873 5875 5877 5879 5880 5882 5884 5886 5888 5890 5892 5893 5895 5896 5898 5899 5901 5903 5904 5907 5909 5910 5912 5914 5915 5917 5918 5918 5919 5919 5919 5919 5920 5920 5921 5922 5922 5923 5923 5924 5924 5923 5923 5922 5922 5921 5920 5921
5772 5775 5778 5781 5785 5788 5792 5795 5798 5802 5805 5808 5811 5813 5816 5819 5822 5824 5827 5832 5836 5839 5842 5845 5847 5849 5852 5854 5856 5857 5858 5859 5860 5862 5864 5866 5869 5870 5872 5874 5876 5877 5879 5882 5883 5885 5886 5888 5889 5891 5893 5894 5896 5898 5900 5901 5904 5906 5907 5909 5911 5912 5913 5914 5915 5915 5915 5915 5916 5917 5917 5918 5918 5919 5919 5919 5920 5920 5919 5918 5918 5918 5917 5916 5916
5769 5772 5775 5778 5781 5785 5788 5791 5794 5797 5800 5803 5806 5808 5811 5814 5817 5819 5824 5828 5832 5835 5838 5841 5843 5846 5848 5850 5852 5853 5854 5855 5857 5859 5862 5864 5866 5867 5869 5871 5873 5875 5877 5879 5880 5882 5883 5885 5886 5888 5890 5892 5893 5895 5897 5899 5901 5903 5904 5906 5907 5909 5910 5910 5910 5911 5911 5912 5913 5913 5913 5914 5915 5915 5915 5915 5916 5916 5915 5914 5914 5913 5912 5912 5912
5765 5768 5771 5774 5778 5781 5784 5787 5790 5793 5796 5798 5801 5804 5807 5810 5812 5815 5820 5824 5828 5831 5834 5838 5840 5842 5845 5847 5848 5849 5851 5852 5854 5857 5859 5861 5862 5864 5866 5868 5870 5872 5874 5875 5877 5879 5880 5881 5883 5886 5888 5889 5890 5892 5894 5895 5897 5899 5901 5903 5904 5905 5905 5906 5906 5907 5908 5909 5909 5910 5910 5910 5910 5911 5911 5911 5911 5911 5910 5909 5909 5909 5908 5907 5907